[[{"header":{"parameterUnit":"m.s-1","parameterCategory":2,"la1":30.2991,"la2":30.254,"lo1":-89.0895,"lo2":-89.0444,"dy":0.0017,"dx":0.0017,"nx":28,"ny":28,"refTime":"2023-10-31T03:00:00:Z","depth":"0","parameterNumber":2,"parameterNumberName":"U-component_of_CURRENTS"},"data":[0,0,0,0,0,0,0,0,0,0,0,0,0,0,0,0,0,0,0,0,0,0,0,0,0,0,0,0,0,0,0,0,0,0,0,0,0,0,0,0,0,0,0,0,0,0,0,0,0,0,0,0,0,0,0,0,0,0,0.2744,0.2745,0,0.2734,0.2733,0.2733,0.2702,0.2702,0.2702,0.2701,0.2668,0.2667,0.2667,0,0,0,0,0,0,0,0,0,0,0,0,0,0.2723,0.2723,0.2744,0.2745,0.2745,0.2734,0.2733,0.2733,0.2702,0.2702,0.2702,0.2701,0.2668,0.2667,0.2667,0,0,0,0,0,0,0,0,0,0,0,0,0,0.272,0.2723,0.2744,0.2731,0.2731,0.2734,0.2733,0.2732,0.2702,0.2702,0.2702,0.2701,0.2668,0.2668,0.2667,0.2669,0,0,0.2664,0.2663,0,0,0,0,0,0,0,0,0.272,0.272,0.2733,0.2732,0.2731,0.2723,0.2713,0.2712,0.2703,0.2709,0.2701,0.2701,0.2687,0.2685,0.2678,0.2667,0.2666,0.2664,0.2663,0.2663,0.2662,0,0,0,0,0,0,0,0.2721,0.2721,0.2736,0.2734,0.2733,0.2721,0.272,0.2713,0.2697,0.2708,0.2707,0.2713,0.2686,0.2679,0.2677,0.2666,0.2664,0.2663,0.2662,0.2662,0.2679,0.268,0,0,0,0,0,0,0.2732,0.2721,0.2736,0.2736,0.2729,0.2722,0.2721,0.2722,0.2697,0.2694,0.2713,0.2711,0.2681,0.2678,0.2676,0.2696,0.2663,0.2662,0.2661,0.2678,0.2679,0.268,0,0,0,0,0,0,0.2731,0.2733,0.2737,0.2732,0.2732,0.2724,0.2725,0.2722,0.2722,0.2702,0.2698,0.2717,0.268,0.2677,0.2678,0.2694,0.2661,0.266,0.2677,0.2678,0.268,0.2725,0,0,0,0,0,0,0.273,0.2733,0.2739,0.2732,0.2733,0.2749,0.2726,0.2723,0.2728,0.2726,0.2704,0.27,0.268,0.2679,0.2677,0.2692,0.266,0.2676,0.2678,0.2679,0.2723,0.2728,0.2733,0,0,0,0,0,0.273,0.2738,0.2739,0.2741,0.2741,0.275,0.2749,0.2738,0.2729,0.2735,0.2719,0.2701,0.269,0.2679,0.2676,0.2692,0.2675,0.2677,0.2679,0.272,0.2727,0.2733,0,0,0,0,0,0,0.2729,0.2736,0.2737,0.2746,0.2755,0.2747,0.2751,0.2747,0.2739,0.2735,0.2711,0.2706,0.2717,0.27,0.2689,0.2704,0.2681,0.2683,0.2713,0.2719,0.2725,0.2745,0.2659,0,0,0,0,0,0.2734,0.2744,0.275,0.276,0.2765,0.2761,0.2764,0.276,0.2754,0.2749,0.2736,0.2724,0.2724,0.2718,0.2714,0.2717,0.2727,0.2727,0.2732,0.2737,0.2752,0.2784,0.2793,0.2688,0.2688,0.2688,0,0,0.2735,0.2744,0.2748,0.2762,0.2764,0.2775,0.2761,0.277,0.278,0.2748,0.2752,0.2745,0.2732,0.2739,0.2741,0.2724,0.2772,0.274,0.2744,0.2757,0.2787,0.2797,0.2807,0.269,0.2689,0.2689,0,0,0.2745,0.2753,0.2763,0.2775,0.279,0.279,0.2798,0.2797,0.2798,0.2802,0.279,0.2798,0.278,0.2783,0.2779,0.2814,0.2806,0.2809,0.2843,0.2873,0.2882,0.289,0.2918,0.2928,0.2803,0.2803,0.2803,0,0.2749,0.2762,0.2768,0.2785,0.2798,0.28,0.2815,0.2819,0.2819,0.2832,0.2809,0.2821,0.2805,0.2833,0.284,0.2827,0.2841,0.2817,0.2881,0.2889,0.2896,0.2922,0.2933,0.2806,0.2806,0.2805,0.2805,0,0.2762,0.2779,0.2788,0.2809,0.2824,0.2839,0.2851,0.2867,0.2865,0.287,0.2899,0.2882,0.2893,0.2887,0.2868,0.2918,0.2911,0.289,0.2865,0.291,0.2934,0.2945,0.2809,0.2809,0.2808,0.2807,0,0,0.2756,0.279,0.2795,0.2809,0.2839,0.2849,0.2882,0.2913,0.2938,0.294,0.2973,0.2975,0.2977,0.2976,0.2963,0.298,0.3037,0.2956,0.2957,0.2985,0.3107,0.312,0.3132,0.3025,0.3027,0.3029,0.3104,0,0.2767,0.2795,0.2815,0.2844,0.2858,0.2886,0.292,0.2951,0.2967,0.2999,0.301,0.3031,0.3008,0.3013,0.3034,0.3039,0.3066,0.3019,0.3059,0.306,0.3067,0.3146,0.3128,0.3195,0.3114,0.3115,0.3116,0,0.2771,0.2791,0.2819,0.2865,0.2876,0.2898,0.2955,0.2984,0.3041,0.3057,0.3094,0.3101,0.3146,0.3104,0.3162,0.3133,0.3134,0.313,0.3132,0.3138,0.3093,0.3136,0.3216,0.3218,0.3132,0.3131,0.313,0,0.275,0.2794,0.2815,0.2829,0.2883,0.2911,0.2942,0.3002,0.303,0.3097,0.3123,0.318,0.3202,0.3226,0.3235,0.3202,0.329,0.3239,0.3257,0.3256,0.3249,0.3245,0.3338,0.3288,0.3288,0.3288,0.3288,0,0.2746,0.2764,0.2807,0.2818,0.2853,0.2899,0.2942,0.2989,0.3053,0.3109,0.3149,0.3211,0.3233,0.3283,0.3278,0.3321,0.3334,0.3295,0.329,0.3264,0.3261,0.3265,0.3256,0.3291,0.329,0.3289,0.3289,0,0.2715,0.2745,0.277,0.2826,0.2841,0.2864,0.2924,0.296,0.3031,0.3106,0.3133,0.324,0.3335,0.3353,0.3403,0.3381,0.3353,0.3414,0.3385,0.3376,0.3378,0.3372,0.3255,0.3141,0.345,0.3451,0.3452,0,0.27,0.2711,0.2758,0.277,0.2793,0.2829,0.2862,0.2935,0.2989,0.3141,0.319,0.3306,0.34,0.3486,0.3498,0.352,0.3406,0.3485,0.3419,0.3413,0.3403,0.3198,0.3093,0.3424,0.3425,0.3425,0.3425,0,0.2671,0.269,0.2708,0.2733,0.276,0.2783,0.2847,0.2883,0.3005,0.3084,0.323,0.3317,0.346,0.3511,0.355,0.3552,0.3382,0.3494,0.35,0.342,0.3192,0.3068,0.3335,0.3429,0.3429,0.3428,0.3428,0.3428,0.2644,0.2644,0.2668,0.2684,0.2711,0.2737,0.2737,0.2834,0.2911,0.3043,0.3203,0.3337,0.3504,0.3582,0.3542,0.3551,0.3415,0.3501,0.3504,0.3301,0.3165,0.3448,0.3525,0.3526,0.3526,0.3526,0.3526,0,0.2595,0.2599,0.2617,0.2624,0.2622,0.2661,0.2721,0.2728,0.28,0.3005,0.3119,0.3371,0.3474,0.3568,0.3672,0.3601,0.3342,0.3536,0.3277,0.3174,0.3481,0.3461,0.3515,0.3515,0.3515,0.3515,0.3515,0.3515,0.2569,0.2554,0.2559,0.2526,0.2533,0.2503,0.2517,0.2566,0.2689,0.2873,0.3046,0.3215,0.3534,0.3813,0.384,0.373,0.3419,0.3304,0.3196,0.3519,0.3514,0.3511,0.3491,0.355,0.355,0.2751,0.2746,0.2743]},{"header":{"parameterUnit":"m.s-1","parameterCategory":2,"la1":30.2991,"la2":30.254,"lo1":-89.0895,"lo2":-89.0444,"dy":0.0017,"dx":0.0017,"nx":28,"ny":28,"refTime":"2023-10-31T03:00:00:Z","depth":"0","parameterNumber":3,"parameterNumberName":"V-component_of_CURRENTS"},"data":[0,0,0,0,0,0,0,0,0,0,0,0,0,0,0,0,0,0,0,0,0,0,0,0,0,0,0,0,0,0,0,0,0,0,0,0,0,0,0,0,0,0,0,0,0,0,0,0,0,0,0,0,0,0,0,0,0,0,-0.0053,-0.0054,0,-0.0097,-0.0098,-0.0098,-0.013,-0.0131,-0.0131,-0.0131,-0.0187,-0.0188,-0.0189,0,0,0,0,0,0,0,0,0,0,0,0,0,-0.0045,-0.0045,-0.0053,-0.0054,-0.0054,-0.0097,-0.0098,-0.0099,-0.013,-0.0131,-0.0131,-0.0131,-0.0186,-0.0188,-0.0189,0,0,0,0,0,0,0,0,0,0,0,0,0,-0.0066,-0.0045,-0.0053,-0.0074,-0.0076,-0.0097,-0.0098,-0.0099,-0.013,-0.0131,-0.0131,-0.0131,-0.0186,-0.0188,-0.019,-0.0198,0,0,-0.0196,-0.0197,0,0,0,0,0,0,0,0,-0.0064,-0.0066,-0.0071,-0.0073,-0.0075,-0.0107,-0.0115,-0.0132,-0.013,-0.0111,-0.0131,-0.0131,-0.016,-0.0164,-0.0174,-0.02,-0.0203,-0.0196,-0.0197,-0.0198,-0.0199,0,0,0,0,0,0,0,-0.0063,-0.0065,-0.0072,-0.0071,-0.0074,-0.0098,-0.0101,-0.0119,-0.0135,-0.0113,-0.0115,-0.0118,-0.0162,-0.0172,-0.0175,-0.0204,-0.0196,-0.0198,-0.0199,-0.02,-0.0234,-0.0234,0,0,0,0,0,0,-0.0052,-0.0063,-0.0071,-0.0073,-0.0069,-0.0097,-0.0101,-0.0098,-0.0135,-0.014,-0.0117,-0.0119,-0.0168,-0.0173,-0.0178,-0.0172,-0.0198,-0.02,-0.0201,-0.0234,-0.0234,-0.0234,0,0,0,0,0,0,-0.0051,-0.0052,-0.0069,-0.0069,-0.0072,-0.0097,-0.0094,-0.0099,-0.0105,-0.0138,-0.0144,-0.0118,-0.0169,-0.0175,-0.0185,-0.0175,-0.0201,-0.0203,-0.0235,-0.0234,-0.0234,-0.0173,0,0,0,0,0,0,-0.0051,-0.0051,-0.0045,-0.0067,-0.0072,-0.007,-0.0094,-0.0099,-0.0106,-0.0108,-0.014,-0.0146,-0.0169,-0.0182,-0.0187,-0.0179,-0.0204,-0.0235,-0.0235,-0.0234,-0.0176,-0.0171,-0.0167,0,0,0,0,0,-0.005,-0.0034,-0.0044,-0.0045,-0.0062,-0.007,-0.0074,-0.0094,-0.0105,-0.0102,-0.0124,-0.0145,-0.0182,-0.0183,-0.0189,-0.0181,-0.0235,-0.0235,-0.0234,-0.0178,-0.0172,-0.0167,0,0,0,0,0,0,-0.0027,-0.0036,-0.0048,-0.0036,-0.0049,-0.0074,-0.0072,-0.0088,-0.0103,-0.0105,-0.0139,-0.0146,-0.0153,-0.0175,-0.0175,-0.0191,-0.0213,-0.0214,-0.0168,-0.0163,-0.0158,-0.0139,-0.0206,0,0,0,0,0,-0.0018,-0.0009,-0.0027,-0.0018,-0.0022,-0.0047,-0.0053,-0.0066,-0.0083,-0.0091,-0.0114,-0.0139,-0.0156,-0.0165,-0.0185,-0.0191,-0.0218,-0.0191,-0.0187,-0.0183,-0.0172,-0.0206,-0.0203,-0.0232,-0.0232,-0.0232,0,0,-0.0008,-0.0011,-0.0007,-0.0013,-0.0026,-0.0019,-0.0051,-0.0053,-0.0047,-0.0094,-0.0093,-0.0123,-0.0154,-0.0161,-0.0166,-0.0177,-0.019,-0.0182,-0.0178,-0.0169,-0.0205,-0.0202,-0.02,-0.0231,-0.0231,-0.0231,0,0,0.0022,0.0016,0.0033,0.0028,0.0017,0.0004,0.0008,-0.0015,-0.0022,-0.0029,-0.006,-0.008,-0.011,-0.0128,-0.0141,-0.0124,-0.0165,-0.0135,-0.0095,-0.0128,-0.0126,-0.0125,-0.0157,-0.0159,-0.0132,-0.0132,-0.0132,0,0.0033,0.0055,0.0036,0.005,0.0054,0.002,0.004,0.0028,0.0005,0.0003,-0.0019,-0.0062,-0.0092,-0.0096,-0.0093,-0.0112,-0.0139,-0.0111,-0.0122,-0.0121,-0.012,-0.0154,-0.0156,-0.0129,-0.0129,-0.0129,-0.013,0,0.0075,0.0091,0.0102,0.0111,0.011,0.0123,0.0106,0.0107,0.0088,0.0067,0.0053,0.0007,-0.0017,-0.0034,-0.0058,-0.0065,-0.0089,-0.0112,-0.0132,-0.0113,-0.015,-0.0154,-0.0124,-0.0126,-0.0126,-0.0127,0,0,0.011,0.0128,0.0134,0.0153,0.0147,0.0157,0.017,0.0173,0.0187,0.0146,0.0154,0.0108,0.0072,0.0055,0.0015,-0.0016,-0.0042,-0.0057,-0.006,-0.0083,-0.0116,-0.0145,-0.0152,-0.0069,-0.0069,-0.007,-0.0144,0,0.0151,0.02,0.0193,0.0239,0.0264,0.0245,0.0266,0.0261,0.0238,0.0236,0.018,0.0165,0.011,0.0097,0.0058,-0.0012,-0.0049,-0.0019,-0.0136,-0.014,-0.0162,-0.0156,-0.0151,-0.0218,-0.0148,-0.0149,-0.015,0,0.02,0.0228,0.0283,0.032,0.0329,0.0351,0.038,0.0391,0.0371,0.0347,0.0309,0.026,0.0215,0.0159,0.005,0.0071,-0.0014,-0.0078,-0.0083,-0.013,-0.0175,-0.0227,-0.0229,-0.0406,-0.0156,-0.0156,-0.0155,0,0.0253,0.0295,0.0347,0.0357,0.0389,0.0417,0.0435,0.043,0.045,0.0415,0.0411,0.0339,0.0314,0.02,0.0068,0.0057,-0.0059,-0.0095,-0.0201,-0.0204,-0.0233,-0.0238,-0.0413,-0.0177,-0.0177,-0.0176,-0.0176,0,0.0308,0.0349,0.0381,0.0413,0.0483,0.0479,0.0538,0.0538,0.0542,0.0576,0.0475,0.0483,0.0322,0.0236,0.0098,-0.0056,-0.004,-0.019,-0.0224,-0.0212,-0.0214,-0.0396,-0.052,-0.0179,-0.0179,-0.0178,-0.0178,0,0.0359,0.0377,0.0443,0.0492,0.0513,0.0565,0.0615,0.0656,0.0638,0.0679,0.0674,0.0597,0.0483,0.0308,0.0132,-0.0005,-0.0285,-0.0222,-0.0196,-0.0226,-0.0495,-0.0615,-0.0832,-0.0976,-0.0353,-0.0354,-0.0355,0,0.0389,0.0431,0.0506,0.0552,0.0578,0.0644,0.0698,0.0708,0.0755,0.0761,0.08,0.0701,0.0657,0.0372,0.0112,-0.0141,-0.0331,-0.0312,-0.0338,-0.0509,-0.0668,-0.0739,-0.0851,-0.0356,-0.0357,-0.0357,-0.0358,0,0.0449,0.0479,0.0534,0.063,0.0698,0.077,0.0848,0.0905,0.0934,0.0962,0.1004,0.0969,0.0696,0.0455,0.0093,-0.0098,-0.0476,-0.0335,-0.0521,-0.0693,-0.0774,-0.0927,-0.0311,-0.0364,-0.0364,-0.0363,-0.0363,-0.0363,0.0496,0.0546,0.0624,0.0715,0.0796,0.0901,0.0971,0.1054,0.1146,0.122,0.1187,0.1172,0.0791,0.0299,0.0001,-0.0523,-0.0552,-0.0662,-0.0794,-0.085,-0.0992,-0.0389,-0.0476,-0.0476,-0.0476,-0.0476,-0.0476,0,0.0552,0.0612,0.0702,0.0813,0.091,0.094,0.1075,0.1145,0.1267,0.1358,0.139,0.1204,0.0722,0.0216,-0.0486,-0.0873,-0.1053,-0.1104,-0.1211,-0.1309,-0.0767,-0.0769,-0.0911,-0.0911,-0.0911,-0.0911,-0.091,-0.091,0.0583,0.0679,0.0726,0.0892,0.097,0.1093,0.1174,0.1281,0.1374,0.1459,0.1468,0.1435,0.1017,-0.0171,-0.1086,-0.1326,-0.1643,-0.1684,-0.1888,-0.1505,-0.1473,-0.1442,-0.1471,-0.1759,-0.176,-0.236,-0.2366,-0.2371]}],[{"header":{"parameterUnit":"m.s-1","parameterCategory":2,"la1":30.2991,"la2":30.254,"lo1":-89.0895,"lo2":-89.0444,"dy":0.0017,"dx":0.0017,"nx":28,"ny":28,"refTime":"2023-10-31T03:00:00:Z","depth":"2","parameterNumber":2,"parameterNumberName":"U-component_of_CURRENTS"},"data":[0,0,0,0,0,0,0,0,0,0,0,0,0,0,0,0,0,0,0,0,0,0,0,0,0,0,0,0,0,0,0,0,0,0,0,0,0,0,0,0,0,0,0,0,0,0,0,0,0,0,0,0,0,0,0,0,0,0,0.2709,0.271,0,0.27,0.2699,0.2699,0.2671,0.267,0.267,0.267,0.2639,0.2638,0.2638,0,0,0,0,0,0,0,0,0,0,0,0,0,0.2688,0.2688,0.2709,0.271,0.271,0.27,0.2699,0.2699,0.2671,0.267,0.267,0.267,0.2639,0.2638,0.2638,0,0,0,0,0,0,0,0,0,0,0,0,0,0.2685,0.2688,0.2709,0.2698,0.2697,0.27,0.2699,0.2698,0.2671,0.267,0.267,0.267,0.2639,0.2638,0.2637,0.2639,0,0,0.2635,0.2634,0,0,0,0,0,0,0,0,0.2686,0.2686,0.2699,0.2699,0.2698,0.269,0.268,0.2679,0.2671,0.2676,0.267,0.2669,0.2657,0.2654,0.2648,0.2637,0.2636,0.2635,0.2634,0.2634,0.2633,0,0,0,0,0,0,0,0.2686,0.2686,0.2701,0.27,0.2699,0.2688,0.2687,0.268,0.2665,0.2676,0.2675,0.268,0.2656,0.2649,0.2647,0.2636,0.2635,0.2634,0.2633,0.2633,0.2651,0.2652,0,0,0,0,0,0,0.2697,0.2686,0.2702,0.2701,0.2695,0.2689,0.2687,0.2689,0.2666,0.2663,0.2681,0.2679,0.265,0.2648,0.2646,0.2668,0.2634,0.2633,0.2632,0.265,0.2651,0.2652,0,0,0,0,0,0,0.2696,0.2698,0.2702,0.2697,0.2697,0.269,0.2692,0.2689,0.269,0.267,0.2666,0.2686,0.265,0.2647,0.2648,0.2665,0.2632,0.2632,0.2649,0.265,0.2652,0.2698,0,0,0,0,0,0,0.2695,0.2698,0.2704,0.2698,0.2698,0.2714,0.2693,0.2689,0.2696,0.2694,0.2673,0.267,0.265,0.265,0.2648,0.2664,0.2631,0.2648,0.265,0.2651,0.2695,0.2701,0.2706,0,0,0,0,0,0.2695,0.2703,0.2704,0.2707,0.2707,0.2716,0.2715,0.2705,0.2697,0.2703,0.2688,0.2671,0.2661,0.265,0.2647,0.2663,0.2647,0.2649,0.2651,0.2693,0.27,0.2705,0,0,0,0,0,0,0.2694,0.2701,0.2702,0.2712,0.2721,0.2713,0.2718,0.2714,0.2707,0.2704,0.268,0.2676,0.2688,0.2671,0.266,0.2675,0.2652,0.2654,0.2685,0.2691,0.2696,0.2716,0.263,0,0,0,0,0,0.27,0.271,0.2716,0.2726,0.2731,0.2728,0.2731,0.2727,0.2722,0.2718,0.2705,0.2694,0.2694,0.2689,0.2685,0.2689,0.2698,0.2699,0.2705,0.2709,0.2724,0.2755,0.2765,0.266,0.266,0.266,0,0,0.2701,0.271,0.2714,0.2728,0.273,0.2741,0.2728,0.2738,0.2747,0.2716,0.2721,0.2716,0.2702,0.271,0.2713,0.2696,0.2744,0.2712,0.2716,0.2729,0.2758,0.2769,0.2778,0.2662,0.2661,0.2661,0,0,0.2711,0.2719,0.273,0.2742,0.2757,0.2757,0.2765,0.2765,0.2766,0.2771,0.2759,0.2768,0.2751,0.2754,0.2751,0.2786,0.2777,0.2781,0.2815,0.2844,0.2854,0.2862,0.2888,0.2898,0.2776,0.2776,0.2776,0,0.2715,0.2728,0.2735,0.2752,0.2765,0.2767,0.2782,0.2786,0.2787,0.2801,0.2778,0.2791,0.2776,0.2804,0.2812,0.2799,0.2813,0.2789,0.2852,0.286,0.2868,0.2893,0.2904,0.2778,0.2778,0.2778,0.2777,0,0.2729,0.2746,0.2755,0.2776,0.2791,0.2806,0.2819,0.2835,0.2834,0.2839,0.2868,0.2852,0.2864,0.2858,0.284,0.289,0.2882,0.2861,0.2836,0.2881,0.2905,0.2915,0.2782,0.2781,0.278,0.278,0,0,0.2724,0.2758,0.2762,0.2776,0.2807,0.2816,0.2849,0.288,0.2906,0.2908,0.2941,0.2944,0.2947,0.2946,0.2934,0.295,0.3007,0.2928,0.2928,0.2956,0.3077,0.3086,0.3098,0.2996,0.2998,0.3,0.3073,0,0.2735,0.2762,0.2782,0.2811,0.2825,0.2854,0.2887,0.2918,0.2934,0.2966,0.2978,0.2999,0.2977,0.2983,0.3004,0.301,0.3036,0.2989,0.3028,0.303,0.3034,0.3111,0.2801,0.2842,0.3082,0.3084,0.3085,0,0.2739,0.2759,0.2787,0.2832,0.2843,0.2866,0.2923,0.2951,0.3008,0.3025,0.3062,0.3069,0.3114,0.3073,0.3131,0.3103,0.3103,0.3099,0.3101,0.3104,0.3059,0.2836,0.2851,0.3102,0.3101,0.31,0.3098,0,0.2719,0.2762,0.2783,0.2798,0.285,0.2879,0.291,0.297,0.2998,0.3065,0.3091,0.3147,0.317,0.3194,0.3202,0.317,0.3256,0.3207,0.3221,0.3221,0.2964,0.2939,0.3255,0.3255,0.3254,0.3254,0.3254,0,0.2716,0.2733,0.2776,0.2788,0.2823,0.2868,0.2912,0.2959,0.3022,0.3078,0.3118,0.3179,0.3201,0.325,0.3245,0.3286,0.33,0.3259,0.3254,0.2973,0.2949,0.3173,0.3162,0.3257,0.3256,0.3256,0.3255,0,0.2686,0.2715,0.2741,0.2796,0.2811,0.2835,0.2894,0.293,0.3001,0.3075,0.3103,0.3207,0.33,0.3319,0.3367,0.3345,0.3372,0.3375,0.3055,0.3013,0.3301,0.3292,0.3405,0.3406,0.3407,0.3408,0.3409,0,0.2671,0.2682,0.2729,0.2741,0.2765,0.2801,0.2834,0.2907,0.2959,0.311,0.3157,0.3271,0.3353,0.3436,0.3384,0.3387,0.3442,0.3137,0.3032,0.334,0.3323,0.3312,0.3302,0.2693,0.2688,0.2683,0.268,0,0.2642,0.2662,0.2679,0.2705,0.2733,0.2756,0.2819,0.2853,0.2975,0.3041,0.3182,0.3257,0.3342,0.3218,0.3229,0.3193,0.3114,0.306,0.3447,0.2733,0.2683,0.2663,0.2672,0.2642,0.2646,0.2649,0.2651,0.2652,0.2616,0.2616,0.264,0.2657,0.2684,0.2709,0.2709,0.2757,0.2814,0.2849,0.3064,0.3031,0.306,0.2914,0.2844,0.2765,0.2989,0.2834,0.2839,0.2851,0.2786,0.2744,0.2701,0.2705,0.2708,0.2711,0.2714,0,0.255,0.2572,0.259,0.2597,0.2568,0.2634,0.2692,0.2611,0.2604,0.2654,0.2688,0.2471,0.2408,0.2438,0.2248,0.2289,0.218,0.2217,0.2017,0.206,0.2096,0.1984,0.1691,0.1688,0.1685,0.1682,0,0,0.2519,0.2495,0.2498,0.2449,0.2473,0.2378,0.2388,0.2285,0.2248,0.2124,0.2064,0.2195,0.2342,0.1945,0.193,0.1774,0.1888,0.1704,0.2527,0.2331,0.2362,0.2465,0.2346,0,0,0,0,0]},{"header":{"parameterUnit":"m.s-1","parameterCategory":2,"la1":30.2991,"la2":30.254,"lo1":-89.0895,"lo2":-89.0444,"dy":0.0017,"dx":0.0017,"nx":28,"ny":28,"refTime":"2023-10-31T03:00:00:Z","depth":"2","parameterNumber":3,"parameterNumberName":"V-component_of_CURRENTS"},"data":[0,0,0,0,0,0,0,0,0,0,0,0,0,0,0,0,0,0,0,0,0,0,0,0,0,0,0,0,0,0,0,0,0,0,0,0,0,0,0,0,0,0,0,0,0,0,0,0,0,0,0,0,0,0,0,0,0,0,0.0009,0.0008,0,-0.0034,-0.0035,-0.0036,-0.0068,-0.0069,-0.0069,-0.0069,-0.0125,-0.0126,-0.0127,0,0,0,0,0,0,0,0,0,0,0,0,0,0.0017,0.0017,0.0009,0.0008,0.0008,-0.0034,-0.0035,-0.0036,-0.0068,-0.0069,-0.0069,-0.0069,-0.0124,-0.0126,-0.0127,0,0,0,0,0,0,0,0,0,0,0,0,0,-0.0004,0.0017,0.0009,-0.0012,-0.0015,-0.0034,-0.0035,-0.0036,-0.0068,-0.0069,-0.0069,-0.0069,-0.0124,-0.0126,-0.0128,-0.0134,0,0,-0.0134,-0.0134,0,0,0,0,0,0,0,0,-0.0003,-0.0004,-0.0009,-0.0011,-0.0013,-0.0045,-0.0053,-0.0069,-0.0068,-0.0049,-0.0069,-0.0069,-0.0098,-0.0102,-0.0111,-0.0137,-0.0139,-0.0134,-0.0135,-0.0136,-0.0136,0,0,0,0,0,0,0,-0.0001,-0.0003,-0.001,-0.0009,-0.0012,-0.0036,-0.0039,-0.0056,-0.0073,-0.0051,-0.0053,-0.0056,-0.01,-0.0109,-0.0113,-0.014,-0.0134,-0.0135,-0.0137,-0.0137,-0.0171,-0.0171,0,0,0,0,0,0,0.001,-0.0001,-0.0008,-0.0011,-0.0007,-0.0035,-0.0039,-0.0036,-0.0073,-0.0078,-0.0055,-0.0057,-0.0106,-0.0111,-0.0115,-0.0111,-0.0136,-0.0138,-0.0139,-0.0171,-0.0171,-0.0171,0,0,0,0,0,0,0.001,0.001,-0.0006,-0.0006,-0.001,-0.0035,-0.0032,-0.0036,-0.0043,-0.0076,-0.0082,-0.0057,-0.0106,-0.0112,-0.0123,-0.0114,-0.0139,-0.014,-0.0172,-0.0171,-0.0171,-0.0112,0,0,0,0,0,0,0.0011,0.001,0.0017,-0.0005,-0.0009,-0.0008,-0.0031,-0.0037,-0.0044,-0.0047,-0.0079,-0.0084,-0.0107,-0.012,-0.0125,-0.0117,-0.0142,-0.0172,-0.0172,-0.0171,-0.0114,-0.011,-0.0106,0,0,0,0,0,0.0011,0.0027,0.0017,0.0016,0.0,-0.0008,-0.0012,-0.0032,-0.0044,-0.0041,-0.0062,-0.0083,-0.012,-0.0121,-0.0127,-0.012,-0.0172,-0.0172,-0.0171,-0.0116,-0.0111,-0.0106,0,0,0,0,0,0,0.0034,0.0025,0.0014,0.0026,0.0013,-0.0012,-0.0011,-0.0026,-0.0042,-0.0044,-0.0077,-0.0084,-0.0091,-0.0113,-0.0113,-0.0129,-0.0151,-0.0151,-0.0107,-0.0102,-0.0098,-0.0078,-0.0144,0,0,0,0,0,0.0042,0.0051,0.0034,0.0043,0.0039,0.0014,0.0008,-0.0005,-0.0022,-0.003,-0.0054,-0.0078,-0.0094,-0.0103,-0.0123,-0.0129,-0.0156,-0.013,-0.0125,-0.0121,-0.011,-0.0145,-0.0142,-0.0169,-0.0169,-0.0169,0,0,0.0053,0.0049,0.0053,0.0048,0.0035,0.0041,0.001,0.0007,0.0013,-0.0033,-0.0033,-0.0062,-0.0093,-0.0099,-0.0105,-0.0115,-0.0129,-0.012,-0.0117,-0.0108,-0.0144,-0.0141,-0.0139,-0.0168,-0.0168,-0.0168,0,0,0.0081,0.0075,0.0092,0.0087,0.0076,0.0064,0.0067,0.0045,0.0037,0.003,-0.0001,-0.0021,-0.005,-0.0068,-0.0081,-0.0064,-0.0105,-0.0075,-0.0036,-0.007,-0.0068,-0.0066,-0.0099,-0.01,-0.0072,-0.0072,-0.0072,0,0.0092,0.0114,0.0095,0.0109,0.0113,0.0079,0.0098,0.0087,0.0064,0.0062,0.0039,-0.0004,-0.0033,-0.0037,-0.0034,-0.0053,-0.008,-0.0052,-0.0063,-0.0062,-0.0062,-0.0096,-0.0098,-0.0069,-0.0069,-0.007,-0.007,0,0.0133,0.0149,0.0159,0.0169,0.0168,0.018,0.0163,0.0164,0.0145,0.0124,0.011,0.0064,0.0041,0.0023,-0.0,-0.0008,-0.0031,-0.0053,-0.0073,-0.0055,-0.0092,-0.0096,-0.0065,-0.0066,-0.0067,-0.0068,0,0,0.0167,0.0186,0.0191,0.021,0.0204,0.0213,0.0226,0.0229,0.0243,0.0201,0.0209,0.0164,0.0128,0.0111,0.0072,0.004,0.0014,-0.0,-0.0004,-0.0027,-0.0061,-0.009,-0.0097,-0.0013,-0.0014,-0.0014,-0.0089,0,0.0207,0.0255,0.0249,0.0294,0.0319,0.03,0.0321,0.0316,0.0293,0.029,0.0235,0.022,0.0165,0.0152,0.0112,0.0043,0.0006,0.0036,-0.008,-0.0083,-0.0106,-0.0102,-0.005,-0.0114,-0.0093,-0.0094,-0.0095,0,0.0255,0.0283,0.0337,0.0374,0.0383,0.0405,0.0433,0.0444,0.0424,0.04,0.0362,0.0313,0.0268,0.0213,0.0103,0.0124,0.004,-0.0024,-0.0029,-0.0076,-0.0119,-0.0129,-0.0122,-0.0102,-0.0101,-0.0101,-0.01,0,0.0307,0.0349,0.04,0.0411,0.0442,0.047,0.0487,0.0482,0.0502,0.0467,0.0462,0.039,0.0365,0.0252,0.0121,0.011,-0.0007,-0.0041,-0.0147,-0.0151,-0.0139,-0.0141,-0.0123,-0.0123,-0.0123,-0.0123,-0.0123,0,0.0361,0.0402,0.0433,0.0465,0.0534,0.0531,0.0588,0.0588,0.0591,0.0626,0.0525,0.0533,0.0373,0.0287,0.015,-0.0004,0.0012,-0.0136,-0.017,-0.0118,-0.0117,-0.0132,-0.0132,-0.0126,-0.0125,-0.0125,-0.0124,0,0.0411,0.0429,0.0494,0.0543,0.0563,0.0614,0.0664,0.0705,0.0686,0.0727,0.0722,0.0644,0.0531,0.0357,0.0181,0.0046,-0.0108,-0.017,-0.0098,-0.0122,-0.024,-0.0236,-0.0298,-0.03,-0.0301,-0.0302,-0.0303,0,0.044,0.0482,0.0556,0.0601,0.0628,0.0692,0.0746,0.0756,0.0803,0.0808,0.0846,0.0747,0.0702,0.0418,0.0174,-0.0074,-0.0118,-0.0212,-0.0231,-0.023,-0.0257,-0.0251,-0.0245,-0.0194,-0.0194,-0.0194,-0.0194,0,0.05,0.0529,0.0583,0.0678,0.0746,0.0817,0.0895,0.0951,0.098,0.1007,0.1047,0.1011,0.0752,0.0525,0.0169,0.0002,-0.0172,-0.0222,-0.0232,-0.0159,-0.0139,-0.0163,-0.0159,-0.0194,-0.0194,-0.0194,-0.0194,-0.0194,0.0546,0.0596,0.0673,0.0762,0.0843,0.0948,0.1017,0.1106,0.1197,0.1266,0.1216,0.116,0.089,0.0453,0.0156,-0.0167,-0.0163,-0.0279,-0.0276,-0.0274,-0.025,-0.0233,-0.0302,-0.0302,-0.0303,-0.0303,-0.0304,0,0.0611,0.066,0.0749,0.0859,0.0966,0.0986,0.1121,0.1212,0.1341,0.1381,0.1399,0.1151,0.0861,0.0528,0.007,-0.0214,-0.0223,-0.0318,-0.0255,-0.0253,-0.0251,-0.0224,-0.0271,-0.0271,-0.0272,-0.0273,0,0,0.0644,0.0743,0.079,0.0958,0.1027,0.118,0.1262,0.1396,0.1469,0.1528,0.1478,0.1371,0.0967,0.0639,0.0264,-0.0003,-0.0068,-0.006,-0.0052,0.007,0.0074,-0.0193,-0.0144,0,0,0,0,0]}],[{"header":{"parameterUnit":"m.s-1","parameterCategory":2,"la1":30.2991,"la2":30.254,"lo1":-89.0895,"lo2":-89.0444,"dy":0.0017,"dx":0.0017,"nx":28,"ny":28,"refTime":"2023-10-31T03:00:00:Z","depth":"4","parameterNumber":2,"parameterNumberName":"U-component_of_CURRENTS"},"data":[0,0,0,0,0,0,0,0,0,0,0,0,0,0,0,0,0,0,0,0,0,0,0,0,0,0,0,0,0,0,0,0,0,0,0,0,0,0,0,0,0,0,0,0,0,0,0,0,0,0,0,0,0,0,0,0,0,0,0.1568,0.1569,0,0.1624,0.1625,0.1625,0.167,0.1671,0.1671,0.1672,0.1739,0.174,0.1741,0,0,0,0,0,0,0,0,0,0,0,0,0,0.1495,0.1496,0.1568,0.1569,0.157,0.1624,0.1625,0.1625,0.167,0.1671,0.1671,0.1672,0.1738,0.174,0.1741,0,0,0,0,0,0,0,0,0,0,0,0,0,0.1534,0.1497,0.1568,0.1601,0.1604,0.1624,0.1625,0.1625,0.167,0.1671,0.1672,0.1672,0.1738,0.174,0.1741,0.1732,0,0,0.1747,0.1747,0,0,0,0,0,0,0,0,0.1532,0.1537,0.1595,0.1598,0.1603,0.1643,0.1624,0.1662,0.1669,0.1642,0.1672,0.1673,0.1709,0.1713,0.1718,0.1735,0.1738,0.1747,0.1748,0.1749,0.1749,0,0,0,0,0,0,0,0.1529,0.1535,0.1588,0.1596,0.1601,0.1611,0.1617,0.1631,0.1667,0.1645,0.1649,0.1658,0.1711,0.1716,0.172,0.1739,0.1747,0.1748,0.1749,0.175,0.1862,0.1863,0,0,0,0,0,0,0.1526,0.1532,0.1586,0.159,0.1572,0.1611,0.1619,0.1627,0.1667,0.1675,0.1657,0.166,0.1712,0.1717,0.1722,0.1811,0.1749,0.175,0.1751,0.186,0.1862,0.1864,0,0,0,0,0,0,0.1525,0.1531,0.1584,0.1564,0.1572,0.1612,0.1621,0.1628,0.1671,0.1677,0.1685,0.1698,0.1713,0.172,0.1771,0.181,0.1751,0.1753,0.1857,0.186,0.1863,0.1926,0,0,0,0,0,0,0.1522,0.1529,0.1552,0.1564,0.1573,0.1621,0.1621,0.1628,0.1674,0.1679,0.1714,0.1719,0.1715,0.1769,0.1773,0.1812,0.1754,0.1855,0.1859,0.1862,0.1922,0.1931,0.1939,0,0,0,0,0,0.1519,0.154,0.1553,0.1561,0.1597,0.1622,0.1629,0.1658,0.1676,0.17,0.1729,0.172,0.1794,0.1772,0.1776,0.1816,0.1853,0.1858,0.1862,0.1918,0.1929,0.1939,0,0,0,0,0,0,0.1522,0.1547,0.1561,0.1591,0.1618,0.1632,0.1664,0.168,0.172,0.1738,0.1742,0.1749,0.1811,0.1805,0.178,0.186,0.1824,0.1829,0.1865,0.1876,0.1884,0.1893,0.1755,0,0,0,0,0,0.1531,0.1559,0.1579,0.1609,0.1626,0.1652,0.1674,0.1694,0.1722,0.1743,0.1768,0.1796,0.1825,0.1845,0.1868,0.1907,0.1907,0.1938,0.1946,0.1954,0.1965,0.1998,0.2011,0.1878,0.1878,0.1878,0,0,0.1542,0.1561,0.1578,0.1613,0.1639,0.1668,0.1669,0.1714,0.1748,0.1743,0.1811,0.1833,0.1845,0.1894,0.1921,0.1898,0.1993,0.1959,0.1965,0.1973,0.2004,0.2017,0.2028,0.1881,0.1881,0.188,0,0,0.1563,0.1595,0.1621,0.1648,0.1693,0.1707,0.1729,0.1766,0.1799,0.1851,0.1865,0.1913,0.1951,0.1971,0.1982,0.2051,0.2041,0.2064,0.2111,0.2143,0.2154,0.2164,0.2181,0.2191,0.2063,0.2064,0.2064,0,0.1578,0.161,0.1635,0.1666,0.1697,0.173,0.1765,0.1796,0.1849,0.1884,0.1886,0.1973,0.1985,0.2045,0.2072,0.2071,0.2084,0.2068,0.2154,0.2163,0.2172,0.2187,0.2198,0.2067,0.2067,0.2066,0.2066,0,0.1605,0.1648,0.167,0.1718,0.1753,0.1794,0.1833,0.1886,0.1928,0.1955,0.204,0.206,0.2112,0.2125,0.212,0.2196,0.2183,0.2163,0.2124,0.2189,0.2201,0.2211,0.2072,0.2071,0.207,0.2069,0,0,0.1593,0.1673,0.1685,0.172,0.1789,0.1814,0.1887,0.1951,0.2005,0.2062,0.2128,0.2186,0.2211,0.2227,0.2236,0.2262,0.2332,0.2247,0.2247,0.2258,0.2404,0.2257,0.2253,0.2331,0.2333,0.2335,0.2387,0,0.1612,0.1674,0.1714,0.1785,0.1819,0.1882,0.1943,0.201,0.2067,0.2137,0.2182,0.2247,0.2244,0.2281,0.2313,0.2333,0.2363,0.232,0.2345,0.2346,0.2202,0.2261,0.2342,0.2394,0.2397,0.2398,0.24,0,0.1617,0.1662,0.1733,0.1823,0.1847,0.1901,0.201,0.2067,0.2168,0.2216,0.2292,0.2324,0.2401,0.2373,0.245,0.2427,0.2432,0.2431,0.2433,0.228,0.2217,0.2317,0.2417,0.2416,0.2415,0.2414,0.2412,0,0.1578,0.1672,0.1734,0.1765,0.187,0.1933,0.1998,0.2103,0.2156,0.2276,0.2322,0.2412,0.2463,0.2496,0.2515,0.2496,0.2573,0.2537,0.2407,0.2397,0.2485,0.2474,0.2586,0.2586,0.2586,0.2586,0.2586,0,0.1561,0.1614,0.173,0.1762,0.1844,0.1929,0.2024,0.2104,0.2209,0.2278,0.2366,0.2419,0.25,0.2547,0.2549,0.2512,0.2607,0.2428,0.2405,0.251,0.2502,0.2492,0.248,0.2588,0.2588,0.2587,0.2587,0,0.1503,0.1582,0.1656,0.1784,0.1828,0.1891,0.2022,0.2081,0.2199,0.229,0.2333,0.2447,0.2516,0.2563,0.2616,0.2537,0.2524,0.2485,0.2606,0.2587,0.2316,0.2308,0.2338,0.2334,0.233,0.2326,0.2324,0,0.1474,0.1512,0.1652,0.1699,0.1767,0.1869,0.1935,0.2065,0.212,0.2291,0.2318,0.2432,0.2496,0.2432,0.251,0.2499,0.2466,0.2434,0.2363,0.2319,0.2294,0.2292,0.2288,0.2317,0.2316,0.2315,0.2314,0,0.1416,0.1487,0.1546,0.164,0.1724,0.1793,0.1899,0.1914,0.2072,0.2198,0.2232,0.2254,0.2321,0.2342,0.2349,0.2341,0.2439,0.2392,0.2399,0.2332,0.2294,0.2272,0.2274,0.23,0.2302,0.2304,0.2305,0,0.1376,0.1399,0.1488,0.1556,0.1648,0.1683,0.1752,0.1812,0.187,0.2048,0.2068,0.2187,0.2309,0.2263,0.2281,0.2253,0.2209,0.211,0.2131,0.2147,0.206,0.1983,0.1882,0,0,0,0,0,0.1319,0.1332,0.1392,0.1447,0.1531,0.1584,0.1709,0.1781,0.1929,0.1897,0.1966,0.2019,0.2037,0.2095,0.2025,0.2212,0.2228,0.2122,0.2128,0.2224,0.224,0.2155,0,0,0,0,0,0,0.128,0.1331,0.1349,0.1338,0.1353,0.1428,0.15,0.1612,0.1589,0.1748,0.1757,0.1883,0.1923,0.2043,0.1978,0.1998,0.1957,0.2202,0.2196,0.2215,0.223,0.2242,0.216,0,0,0,0,0]},{"header":{"parameterUnit":"m.s-1","parameterCategory":2,"la1":30.2991,"la2":30.254,"lo1":-89.0895,"lo2":-89.0444,"dy":0.0017,"dx":0.0017,"nx":28,"ny":28,"refTime":"2023-10-31T03:00:00:Z","depth":"4","parameterNumber":3,"parameterNumberName":"V-component_of_CURRENTS"},"data":[0,0,0,0,0,0,0,0,0,0,0,0,0,0,0,0,0,0,0,0,0,0,0,0,0,0,0,0,0,0,0,0,0,0,0,0,0,0,0,0,0,0,0,0,0,0,0,0,0,0,0,0,0,0,0,0,0,0,0.0334,0.0333,0,0.0304,0.0303,0.0303,0.0289,0.0289,0.0289,0.0289,0.0251,0.025,0.0249,0,0,0,0,0,0,0,0,0,0,0,0,0,0.0337,0.0337,0.0334,0.0333,0.0333,0.0304,0.0303,0.0303,0.0289,0.0289,0.0289,0.0289,0.0251,0.025,0.0249,0,0,0,0,0,0,0,0,0,0,0,0,0,0.0324,0.0337,0.0334,0.0323,0.0322,0.0304,0.0303,0.0302,0.0289,0.0289,0.0289,0.0289,0.0252,0.025,0.0249,0.0236,0,0,0.0244,0.0243,0,0,0,0,0,0,0,0,0.0324,0.0323,0.0325,0.0324,0.0322,0.0301,0.029,0.028,0.0289,0.03,0.0289,0.0289,0.0267,0.0264,0.0257,0.0234,0.0232,0.0243,0.0242,0.0242,0.0241,0,0,0,0,0,0,0,0.0325,0.0324,0.0321,0.0325,0.0323,0.0305,0.0304,0.0288,0.0283,0.0299,0.0299,0.0296,0.0266,0.0259,0.0256,0.0232,0.0243,0.0242,0.0241,0.024,0.0193,0.0193,0,0,0,0,0,0,0.0333,0.0326,0.0322,0.032,0.0325,0.0306,0.0304,0.0307,0.0283,0.028,0.0296,0.0296,0.0262,0.0258,0.0255,0.0246,0.0242,0.024,0.0239,0.0193,0.0193,0.0193,0,0,0,0,0,0,0.0333,0.0333,0.0323,0.0322,0.032,0.0306,0.0309,0.0306,0.0303,0.0281,0.0277,0.0296,0.0262,0.0257,0.0246,0.0244,0.0239,0.0238,0.0193,0.0193,0.0193,0.0223,0,0,0,0,0,0,0.0333,0.0333,0.034,0.0323,0.032,0.0317,0.0309,0.0306,0.0301,0.03,0.0279,0.0276,0.0262,0.0249,0.0244,0.0242,0.0237,0.0194,0.0193,0.0193,0.0222,0.0224,0.0225,0,0,0,0,0,0.0334,0.0344,0.034,0.034,0.0329,0.0317,0.0314,0.0304,0.0301,0.0301,0.0288,0.0277,0.0242,0.0247,0.0242,0.0239,0.0194,0.0193,0.0193,0.0222,0.0223,0.0225,0,0,0,0,0,0,0.0349,0.0343,0.0339,0.0347,0.0335,0.0315,0.0317,0.0307,0.0296,0.0298,0.0276,0.0272,0.026,0.0244,0.0251,0.0223,0.0215,0.0213,0.0238,0.024,0.0241,0.0256,0.0235,0,0,0,0,0,0.0356,0.0363,0.0348,0.0355,0.0352,0.0334,0.0329,0.0321,0.0308,0.0304,0.0287,0.0269,0.0252,0.0243,0.0227,0.0213,0.0192,0.0206,0.0207,0.0208,0.0217,0.018,0.0179,0.019,0.019,0.019,0,0,0.0364,0.0362,0.0366,0.0359,0.035,0.0349,0.0332,0.0328,0.0328,0.0301,0.0298,0.0275,0.025,0.0236,0.0229,0.0224,0.0192,0.0208,0.0209,0.0217,0.0179,0.0178,0.0177,0.019,0.019,0.019,0,0,0.0382,0.0382,0.0393,0.0385,0.0375,0.0364,0.0365,0.0347,0.0342,0.0331,0.0311,0.029,0.0265,0.0245,0.0232,0.0228,0.0202,0.0219,0.0238,0.0202,0.02,0.0199,0.0168,0.0163,0.0218,0.0219,0.0219,0,0.0392,0.0405,0.0392,0.0397,0.0397,0.0374,0.0381,0.0371,0.0351,0.0347,0.0336,0.0293,0.0269,0.025,0.0247,0.0232,0.0209,0.0236,0.0204,0.0202,0.0201,0.0168,0.0163,0.022,0.022,0.022,0.0219,0,0.0413,0.0424,0.0429,0.043,0.0426,0.043,0.0413,0.0411,0.0398,0.038,0.036,0.0323,0.0298,0.028,0.0263,0.0239,0.0226,0.0212,0.0204,0.0202,0.0167,0.0162,0.0222,0.0221,0.0221,0.0221,0,0,0.0438,0.0444,0.0448,0.046,0.0447,0.045,0.0451,0.0444,0.0449,0.0415,0.0412,0.0367,0.0341,0.0325,0.0294,0.0259,0.022,0.0234,0.0231,0.0209,0.0142,0.0134,0.0126,0.02,0.0199,0.0199,0.0122,0,0.046,0.0484,0.0477,0.0502,0.0514,0.0499,0.0506,0.0495,0.0474,0.0464,0.0417,0.04,0.036,0.0349,0.0307,0.0248,0.0207,0.0242,0.0142,0.014,0.0137,0.012,0.0196,0.0118,0.0117,0.0116,0.0115,0,0.0486,0.0501,0.0532,0.0552,0.0556,0.0568,0.0579,0.0581,0.0554,0.0535,0.0498,0.0459,0.041,0.0375,0.0268,0.0294,0.0222,0.0169,0.0164,0.0145,0.0121,0.0119,0.0104,0.0105,0.0106,0.0106,0.0107,0,0.0522,0.0543,0.0575,0.058,0.0594,0.0614,0.0623,0.0608,0.0616,0.0583,0.0576,0.0504,0.0481,0.0381,0.0271,0.0268,0.0151,0.013,0.0052,0.0051,0.0069,0.0071,0.0048,0.0048,0.0048,0.0048,0.0049,0,0.055,0.0579,0.0602,0.0622,0.0668,0.0662,0.0699,0.0694,0.0685,0.07,0.0623,0.0613,0.0481,0.0399,0.0287,0.0157,0.0159,0.0055,0.003,0.0083,0.0087,0.0065,0.0068,0.0046,0.0046,0.0047,0.0047,0,0.0584,0.0596,0.0641,0.0673,0.069,0.0727,0.076,0.0785,0.0766,0.0783,0.0779,0.0695,0.0588,0.0446,0.0287,0.0189,0.0059,0.0009,0.0084,0.0064,-0.0023,-0.0018,-0.0087,-0.0088,-0.0089,-0.009,-0.009,0,0.0601,0.063,0.0687,0.0721,0.0742,0.0791,0.0831,0.0832,0.0855,0.0836,0.0853,0.0756,0.0684,0.0455,0.0298,0.0076,0.0041,-0.0032,-0.0039,-0.002,-0.0038,-0.0031,-0.0025,-0.0092,-0.0092,-0.0092,-0.0092,0,0.0636,0.0664,0.0701,0.0774,0.0829,0.0881,0.0936,0.0954,0.0963,0.0946,0.0907,0.0779,0.0655,0.0466,0.0293,0.0134,0.0013,-0.0041,-0.0041,-0.0048,-0.0026,-0.0042,-0.0034,-0.0095,-0.0095,-0.0094,-0.0094,0,0.0668,0.0701,0.0759,0.082,0.0894,0.0958,0.0974,0.1001,0.1016,0.0988,0.0977,0.0827,0.074,0.0496,0.0341,0.0179,0.0129,0.0068,0.0062,0.0063,0.0124,0.0175,0.0146,0,0,0,0,0,0.0692,0.0734,0.0796,0.0866,0.0942,0.0988,0.1044,0.1052,0.1059,0.1041,0.1005,0.0885,0.064,0.0535,0.0372,0.0317,0.01,0.0118,0.0027,-0.0111,-0.0107,-0.0063,0,0,0,0,0,0,0.0709,0.0774,0.0801,0.0899,0.0956,0.1043,0.1085,0.1087,0.1066,0.1044,0.0918,0.0843,0.0608,0.0741,0.0372,0.0321,0.0238,0.0003,-0.0001,-0.0113,-0.011,-0.0107,-0.006,0,0,0,0,0]}]]